Tracking 35280 objects as of 7-Sep-2026
HD Live streaming from Space Station
objects crossing your sky now

NOAA 17 DEB

Track NOAA 17 DEB now!
10-day predictions


NORAD ID: 48175
Int'l Code: 2002-032R
Launch date: June 24, 2002
Source: United States (US)
Launch site: AIR FORCE WESTERN TEST RANGE (AFWTR)

Note: This is SATELLITE DEBRIS
Your satellite tracking list
Your tracking list is empty




NASA's NSSDC Master Catalog

Two Line Element Set (TLE):
1 48175U 02032Q   26250.19348252  .00005706  00000-0  12045-2 0  9993
2 48175  98.7392 237.9896 0018413  28.0589 332.1598 14.59690909286805
Source of the keplerian elements: AFSPC